GEFSCGP_500_meanwind_198.txt.gz
Wind_Speed
9 10 11 12 13 13 13 13 13 14 16 17 18 19 18 19 20 19 19 19 19 19 17 16 16 17 16 16 16 16 17 17 18 19 19 18 18 19 20 20 19 19 19 19
9 10 12 13 13 13 13 13 13 14 16 17 18 18 18 18 19 19 19 19 19 19 19 17 18 17 17 16 16 16 16 16 18 19 19 18 19 19 20 21 19 19 19 19
9 11 12 13 14 15 15 16 15 15 17 17 19 18 17 17 17 18 19 19 18 19 19 18 17 16 17 17 16 17 18 18 18 19 18 19 20 20 20 20 20 20 19 19
9 11 13 13 14 15 16 16 17 17 18 17 18 18 16 17 17 17 18 18 18 18 18 18 17 17 17 17 17 18 18 18 19 19 19 20 20 19 19 20 20 19 19 20
10 12 13 13 14 15 15 15 16 17 17 17 17 19 17 17 17 17 18 19 19 18 18 18 17 17 17 18 18 18 18 18 19 19 18 19 19 19 19 19 19 19 19 19
12 13 14 14 14 14 14 16 16 16 17 17 17 19 18 17 16 17 18 18 18 17 18 18 18 17 18 18 18 18 18 18 18 18 18 19 18 18 18 18 19 19 19 19
12 13 14 14 14 14 14 16 17 17 18 17 17 18 17 16 16 17 17 17 17 18 17 17 17 17 17 18 18 18 18 18 17 17 18 18 19 19 17 18 19 18 18 18
12 12 13 14 14 15 15 16 18 20 20 19 17 17 17 16 15 15 16 17 17 17 17 18 18 18 18 18 18 18 17 17 18 18 19 19 19 20 19 19 18 17 17 17
14 13 13 14 14 15 16 16 17 20 20 20 19 19 17 16 16 16 16 16 17 17 17 18 18 18 18 18 17 17 17 17 19 19 19 18 18 18 19 19 18 18 17 17
14 15 14 14 15 16 17 18 18 19 21 21 20 18 18 17 17 17 17 18 18 18 18 17 17 17 16 16 16 16 17 18 18 19 19 18 18 18 18 17 17 17 18 18
15 16 15 16 17 17 17 18 19 19 19 21 21 18 17 18 17 17 17 17 17 17 17 17 16 16 16 17 17 17 17 17 17 17 17 18 18 18 17 17 16 17 17 17
16 17 17 17 18 18 18 18 18 18 19 20 21 19 18 17 17 17 17 16 17 17 17 17 17 16 16 16 16 16 16 16 17 16 16 16 16 16 16 16 16 17 17 17
17 17 18 17 17 18 18 16 16 17 18 20 20 18 17 16 16 17 17 18 18 18 17 17 17 16 16 15 15 15 15 15 15 15 14 14 14 15 16 15 16 17 17 18
19 18 17 17 16 16 16 14 15 15 16 17 17 16 15 16 17 17 17 18 18 17 16 16 16 16 15 15 15 15 14 14 14 13 13 14 14 14 14 14 15 16 17 17
18 17 16 16 15 15 14 13 13 14 14 15 14 15 15 16 16 16 16 17 16 15 14 14 14 15 15 14 14 14 14 14 13 12 13 13 13 12 13 14 14 15 15 15
17 16 14 13 13 13 12 12 13 13 13 13 14 14 14 15 15 15 16 16 15 15 15 15 15 14 13 12 12 12 13 13 11 12 12 12 11 11 12 12 13 13 14 14
16 16 15 13 12 12 12 11 12 12 12 13 14 13 13 13 14 15 15 15 14 14 14 14 13 13 12 11 11 11 11 11 11 10 10 10 10 10 11 11 12 13 14 14
14 14 14 13 12 12 11 11 11 11 11 12 12 12 12 13 13 13 12 11 11 11 12 11 11 11 10 10 10 10 11 10 10 10 10 10 10 11 11 11 12 13 13 13
13 13 13 12 11 11 10 10 10 10 10 11 10 11 12 13 12 10 10 10 9 9 9 8 8 9 9 10 9 9 10 10 10 10 10 10 10 9 10 11 12 12 12 13
12 12 13 12 11 11 10 10 10 10 9 10 9 10 11 11 10 8 8 8 7 7 7 6 7 8 8 8 8 8 9 9 9 10 9 9 9 9 10 10 11 11 12 12
11 11 11 11 10 10 10 10 9 9 8 9 9 10 10 10 9 7 8 7 6 6 6 6 6 7 7 7 7 8 8 8 9 9 9 9 8 8 9 10 10 11 11 12
11 11 12 12 10 9 10 10 9 9 9 9 8 8 8 8 7 7 7 6 5 5 5 5 5 6 6 6 7 7 8 8 8 8 8 7 7 8 9 9 10 10 11 11
12 12 12 11 10 10 10 10 10 9 9 8 8 8 7 7 6 6 6 5 5 4 4 5 4 4 5 5 6 6 7 7 7 7 6 6 7 8 9 9 9 10 11 11
12 12 11 11 10 11 10 10 10 9 9 9 8 7 7 7 6 5 5 4 4 4 4 4 4 4 4 4 4 4 5 5 5 5 5 5 6 7 8 8 9 10 10 11
11 12 12 11 11 11 11 11 9 9 9 8 7 7 6 6 5 4 3 3 3 3 3 3 3 3 3 3 4 4 5 5 4 4 5 5 5 7 8 8 9 10 11 12
10 11 11 11 11 12 11 11 9 8 8 7 7 6 6 6 6 4 3 2 2 2 2 3 3 2 2 3 4 4 4 4 4 4 5 5 6 7 8 9 10 11 12 13

GEFSCGP_500_meanwind_204.txt.gz
Wind_Speed
7 8 9 11 12 12 12 12 12 14 16 16 16 16 17 18 18 18 18 18 18 19 19 19 19 18 19 19 19 20 18 19 19 19 19 19 18 19 19 19 19 18 17 17
7 8 10 11 12 12 13 13 13 15 16 17 17 17 17 17 18 18 17 18 18 18 19 19 20 20 20 19 18 18 19 19 20 20 19 19 19 19 19 19 18 18 18 17
7 9 10 10 11 12 13 14 14 16 16 16 17 18 17 17 18 18 17 17 18 18 19 18 19 19 20 19 18 18 19 20 20 19 19 19 19 18 19 19 19 19 18 17
9 10 10 11 12 12 13 15 16 17 16 15 15 15 17 17 17 17 16 16 17 18 18 18 19 18 19 18 18 18 18 19 20 19 19 19 20 20 20 20 20 19 18 18
11 11 12 12 13 13 14 15 16 16 16 15 15 14 15 15 16 16 16 16 16 17 17 17 17 17 17 17 18 19 20 20 19 19 19 20 21 21 21 20 19 18 18 18
12 12 13 13 13 15 15 14 15 15 13 14 15 14 15 14 15 16 16 16 16 16 16 16 17 16 16 17 18 18 19 19 20 19 19 20 21 21 21 19 18 18 18 18
12 13 13 13 14 14 14 13 12 12 12 14 15 15 15 15 15 15 16 17 16 16 16 17 18 18 18 18 18 19 19 20 20 19 19 20 20 20 20 19 18 18 18 19
12 12 13 13 13 14 13 12 12 13 13 14 16 16 15 15 15 16 16 17 17 16 16 17 18 19 19 19 19 19 19 19 19 19 19 19 19 19 20 19 19 19 19 19
13 12 12 13 12 12 12 12 12 14 14 14 15 15 15 15 15 15 16 15 16 16 17 17 18 19 19 19 19 18 18 19 19 19 19 19 19 18 18 18 18 19 19 20
14 13 12 12 12 12 12 12 12 12 13 13 14 13 13 14 14 14 15 16 16 16 17 17 18 18 18 18 18 19 19 18 19 19 19 19 19 18 17 16 16 18 19 20
13 13 13 12 12 12 12 12 13 12 13 13 13 13 14 14 14 14 15 16 16 15 16 16 17 16 16 16 17 18 18 18 18 18 18 18 17 16 15 16 17 18 18 20
12 12 12 12 12 12 11 11 11 12 12 12 12 13 13 14 14 15 15 15 15 16 16 16 16 15 15 15 16 17 17 17 17 16 16 16 15 15 15 16 17 17 18 19
13 12 11 11 11 11 11 11 11 11 12 12 12 12 13 14 14 15 15 15 15 15 15 15 15 16 16 16 16 16 16 16 15 15 14 14 13 14 14 15 16 17 17 17
13 12 11 11 11 10 10 10 9 10 11 12 12 12 13 14 14 15 15 14 14 13 14 14 15 15 15 15 15 15 15 15 14 14 14 13 14 14 14 14 14 14 15 16
13 12 11 10 10 9 9 9 9 9 10 11 11 12 13 14 14 14 14 14 13 13 13 14 14 14 14 15 14 14 14 14 14 13 13 13 13 14 14 14 13 13 14 15
12 11 9 9 8 9 8 7 8 9 9 9 10 11 13 13 12 13 13 13 13 13 13 12 12 13 13 12 12 12 12 12 12 12 11 12 13 13 13 13 13 13 14 15
11 10 8 8 7 7 7 6 6 7 8 9 10 11 11 11 11 11 11 11 12 12 11 10 11 11 11 11 10 10 10 10 10 10 10 11 11 11 11 11 11 12 13 13
10 9 7 7 6 6 6 6 6 7 9 10 11 11 10 10 10 10 11 10 10 9 9 8 8 8 8 9 8 8 8 9 9 10 10 11 10 10 10 9 10 11 12 13
9 8 7 6 6 6 6 6 6 7 9 10 10 10 9 10 10 10 10 10 9 8 7 6 6 6 6 5 5 6 6 7 8 9 9 10 9 9 8 9 10 11 12 13
9 8 7 6 5 5 6 7 8 8 10 9 9 9 9 10 9 8 8 7 6 5 4 4 5 4 4 4 4 5 6 6 6 7 7 8 8 8 8 9 9 10 11 12
9 8 6 5 5 6 7 7 7 8 8 8 8 8 8 9 9 8 6 5 4 4 4 4 4 4 4 4 4 4 5 5 5 6 6 6 6 7 8 8 9 10 11 12
9 7 6 5 5 6 7 7 7 7 7 8 7 8 7 7 8 7 5 5 5 4 4 3 3 3 2 2 3 3 4 4 4 5 5 5 6 6 7 9 10 11 12 12
7 6 6 6 6 7 7 7 7 7 7 7 7 7 7 7 6 6 5 5 5 4 3 3 3 2 1 1 2 2 3 3 3 3 4 5 6 6 7 9 9 10 11 12
7 7 7 7 7 7 8 8 8 8 8 8 7 7 7 7 6 5 5 5 4 3 2 2 2 1 1 1 1 2 2 3 3 3 4 5 5 7 8 9 9 10 11 13
8 8 7 7 7 8 8 8 7 7 7 7 6 6 6 7 6 5 5 4 4 3 2 2 1 1 1 0 1 2 2 2 3 4 4 5 6 8 8 9 10 11 12 13
8 8 8 7 8 9 8 8 8 7 7 6 6 6 6 6 5 4 3 3 2 2 2 2 1 1 1 1 1 2 3 2 3 4 5 6 7 8 8 9 10 11 12 13

GEFSCGP_500_meanwind_210.txt.gz
Wind_Speed
7 8 9 9 9 11 12 14 16 16 15 15 16 17 20 18 16 16 15 17 20 20 20 21 22 22 21 20 20 21 21 20 20 20 21 21 21 21 21 20 21 21 21 21
7 9 10 10 11 12 13 14 16 15 15 16 16 16 19 17 16 17 18 18 19 19 20 19 20 21 22 22 21 21 20 20 21 20 20 21 21 21 21 21 21 20 21 21
8 9 11 13 13 13 13 15 16 15 15 16 15 17 17 16 16 17 18 19 19 20 20 20 20 20 20 20 21 21 20 20 20 20 20 21 19 19 19 19 20 20 20 20
9 9 11 12 12 13 14 14 15 15 14 14 13 16 16 16 16 16 17 19 20 20 20 19 19 19 19 20 20 20 20 20 20 19 19 19 18 18 19 20 20 20 21 21
9 9 10 12 13 14 14 14 14 14 15 15 13 16 17 17 16 16 18 19 20 20 20 19 20 19 19 20 20 19 20 20 20 19 19 19 19 19 19 20 20 21 22 22
9 8 9 11 13 13 13 13 14 14 14 15 12 14 18 19 17 17 18 19 20 21 22 21 21 20 20 19 20 19 19 19 20 20 20 20 20 19 20 20 21 21 21 22
10 10 9 10 10 10 12 13 14 13 13 14 12 15 19 19 16 17 17 17 19 20 21 22 21 20 20 18 19 18 18 20 20 20 20 20 20 20 20 21 21 21 21 21
10 11 11 10 10 12 12 12 13 14 14 14 12 14 16 18 19 18 16 17 18 19 19 20 19 18 17 17 18 18 18 19 19 19 19 19 19 20 21 20 20 20 21 21
11 12 11 10 10 11 11 11 12 14 15 14 13 14 16 18 18 17 18 18 17 17 19 19 18 18 17 17 17 17 18 18 17 17 17 18 19 19 18 19 19 20 21 21
12 11 11 11 11 9 10 11 12 12 13 13 13 14 17 18 16 16 16 17 19 18 19 19 18 18 18 17 16 16 16 17 17 17 17 17 18 18 18 19 19 20 20 20
11 11 9 10 9 10 11 10 13 13 12 13 16 17 18 19 18 16 16 16 17 17 18 17 16 16 17 17 16 17 17 17 17 17 17 17 17 17 18 18 18 19 19 19
9 9 9 8 7 9 10 10 12 14 13 12 15 17 15 17 19 19 17 16 16 16 16 16 16 16 16 16 16 16 16 17 17 16 16 16 16 16 17 17 17 17 17 17
9 9 9 8 7 8 9 10 11 11 12 11 12 16 16 17 17 17 16 16 17 17 15 15 15 15 15 15 15 15 15 15 15 16 16 15 15 16 17 17 16 16 16 16
8 9 10 9 8 9 9 8 7 8 10 11 11 14 15 15 14 14 14 15 16 17 16 14 13 13 13 14 14 14 14 14 14 14 14 15 15 15 16 16 15 15 15 16
8 8 9 9 8 8 8 6 6 7 8 9 10 13 14 14 14 14 14 15 15 15 14 13 13 13 14 14 14 14 14 13 13 13 13 14 14 15 14 14 14 14 14 14
8 8 9 8 8 7 6 5 6 7 9 10 10 11 13 14 15 14 13 14 15 14 14 14 14 14 14 13 13 13 12 12 12 12 13 13 14 14 13 12 12 13 13 14
9 9 9 9 8 6 6 6 8 8 9 12 12 12 13 14 14 14 14 14 14 14 13 13 13 12 11 11 10 10 11 12 11 11 12 12 12 12 12 12 12 12 12 13
10 10 10 9 8 5 6 7 9 9 10 11 11 12 13 14 13 14 14 13 13 13 13 12 11 10 9 9 9 8 9 9 9 10 10 10 11 11 11 10 10 11 12 13
9 9 9 9 8 7 8 9 10 10 10 11 11 12 12 11 11 11 12 12 12 12 12 10 9 8 8 7 7 7 7 7 7 8 8 9 10 9 8 8 9 11 12 13
9 9 8 8 8 8 8 9 9 9 10 10 11 12 11 11 10 10 11 11 10 10 10 9 8 7 7 6 6 5 5 6 6 7 7 8 8 7 7 8 9 10 12 13
10 9 9 8 8 9 8 9 10 10 9 10 11 11 11 11 11 11 10 10 9 9 9 8 6 6 6 6 5 5 5 6 6 6 6 6 7 7 7 8 9 10 12 13
9 9 9 9 9 10 9 10 10 10 10 11 10 11 11 10 9 10 9 9 9 9 8 8 7 6 6 5 5 4 5 5 5 5 6 6 7 7 8 9 9 10 12 13
9 9 9 9 10 10 10 10 10 10 10 10 10 10 10 9 9 9 8 8 8 8 7 6 6 6 5 5 5 5 5 5 5 5 6 7 7 8 9 10 11 11 13 14
10 9 9 10 10 9 11 10 9 10 10 9 10 10 9 8 8 8 7 6 7 7 7 6 5 5 5 5 5 4 5 5 5 5 6 7 7 8 9 10 11 12 13 14
11 10 10 10 10 11 11 10 10 10 10 9 9 9 8 7 8 8 7 6 6 6 7 6 6 5 5 5 4 4 4 4 5 5 6 7 8 9 9 10 11 12 13 14
11 11 11 11 11 11 10 10 10 10 10 10 9 8 8 8 8 7 7 6 6 6 6 6 6 5 4 4 4 4 4 4 5 6 6 7 8 9 9 10 11 12 14 15

GEFSCGP_500_meanwind_216.txt.gz
Wind_Speed
6 8 8 7 8 9 10 10 10 10 11 13 14 14 15 16 16 17 18 19 20 20 19 19 19 19 18 19 20 19 18 18 19 18 18 17 17 17 17 16 15 16 16 16
6 7 6 7 8 10 11 11 10 10 11 13 13 14 16 18 16 16 17 18 20 21 20 19 18 18 18 18 18 18 19 19 18 17 18 17 16 16 16 15 15 16 16 16
6 5 5 7 9 10 12 12 12 13 13 14 13 13 16 17 16 17 17 18 20 19 18 19 19 19 20 20 19 18 18 18 17 17 17 16 15 15 15 15 15 16 16 15
5 5 6 8 9 11 12 11 13 13 14 14 14 14 16 16 17 17 18 18 18 18 17 17 18 19 19 19 19 18 18 18 17 17 16 15 15 15 14 15 15 15 16 16
5 6 8 9 10 12 12 12 13 13 14 14 13 14 16 16 17 19 19 19 18 18 18 18 19 19 19 20 18 17 17 17 18 17 16 15 16 16 15 15 15 16 16 17
6 8 9 10 11 12 12 12 13 13 13 14 13 15 16 17 17 17 17 18 19 18 18 18 18 18 18 18 18 18 18 17 17 17 16 16 16 16 16 16 16 17 17 17
7 7 9 9 10 11 12 12 12 14 12 12 13 15 16 16 17 17 16 17 18 18 17 17 17 17 16 16 17 17 17 16 17 17 17 18 17 16 16 17 18 18 17 18
9 9 9 9 9 10 10 10 11 12 11 11 12 14 14 13 14 14 14 15 16 18 17 15 16 16 16 16 16 15 16 16 17 17 17 17 17 17 17 18 18 17 17 18
10 9 9 9 9 11 11 10 10 10 11 11 11 12 12 11 11 10 13 14 15 17 18 17 15 16 15 15 14 14 15 16 17 17 17 17 16 16 16 16 17 17 17 18
11 10 9 8 8 8 8 8 8 9 10 10 11 11 12 11 12 12 13 13 15 16 16 15 13 14 13 14 14 14 14 13 15 15 15 15 16 16 16 17 16 16 16 17
9 9 8 7 7 7 7 6 6 7 8 8 10 10 11 12 12 13 14 15 16 16 14 14 12 12 11 11 11 12 12 11 13 12 12 13 14 14 15 16 16 15 15 16
8 8 7 7 8 7 7 6 7 7 7 8 9 10 11 12 12 14 14 15 15 16 15 13 11 12 11 10 10 10 10 10 10 10 10 11 12 12 13 13 14 15 16 15
8 8 8 6 6 6 6 7 7 8 8 8 9 10 11 11 12 13 13 13 14 13 12 11 10 10 10 10 9 9 9 9 10 10 10 11 10 10 11 12 12 13 13 14
7 7 8 8 7 7 6 7 7 7 8 8 9 9 10 10 12 13 13 12 12 13 12 10 9 9 9 9 9 9 9 9 9 9 9 9 9 10 10 10 11 11 11 12
6 7 8 8 8 7 7 7 7 7 8 8 8 9 10 11 11 12 12 11 11 11 11 10 10 10 8 8 8 8 7 7 8 8 8 8 8 9 10 10 10 10 11 11
6 6 8 8 8 8 7 7 6 6 7 8 8 8 10 10 10 11 11 11 11 11 11 10 10 9 9 8 6 6 7 7 8 8 8 9 9 9 9 10 10 10 11 11
7 6 7 7 8 8 7 7 7 7 7 7 8 8 9 9 9 11 11 11 12 11 10 9 9 9 8 7 6 6 7 7 8 8 8 9 9 9 9 10 9 9 10 11
8 8 8 7 8 8 7 7 7 7 8 8 8 9 9 9 10 10 10 10 11 11 10 9 10 9 8 8 6 5 6 6 7 7 7 8 8 8 8 8 8 8 9 10
8 9 9 9 9 7 8 9 8 8 8 8 8 9 9 9 9 9 9 9 10 11 10 9 9 9 8 7 6 5 4 5 5 5 6 6 6 7 7 7 7 8 9 9
9 9 9 10 9 8 8 8 8 7 7 7 7 8 9 10 8 8 9 9 10 10 10 9 9 8 8 7 6 5 4 4 4 4 4 4 5 5 5 6 6 7 8 8
9 9 10 10 9 9 8 7 6 6 6 6 6 8 9 9 9 9 9 9 9 9 9 9 9 9 8 7 6 6 5 4 3 3 3 3 4 4 5 5 6 7 8 9
9 9 10 10 9 9 9 6 6 7 7 7 7 8 8 9 9 9 9 9 9 9 9 9 9 9 8 7 7 6 6 5 4 3 4 4 5 5 5 5 6 7 8 9
8 9 10 10 9 10 8 7 6 7 7 7 7 8 9 10 9 9 9 9 9 9 8 8 9 8 8 7 7 6 6 5 5 4 4 5 6 6 6 6 6 7 8 9
8 9 10 10 9 9 8 7 6 6 7 6 7 8 9 9 9 9 9 9 8 8 8 8 8 8 8 7 6 6 5 5 5 4 4 5 6 6 6 6 7 8 8 9
8 8 9 10 9 9 8 8 7 7 7 6 7 7 8 8 8 8 9 8 7 7 7 7 8 8 8 7 6 5 5 5 5 5 5 5 6 6 6 7 7 8 8 10
8 8 10 10 10 9 9 8 8 8 7 7 7 7 7 8 7 7 7 7 7 7 7 6 7 7 7 7 7 5 5 5 6 6 6 6 6 6 7 7 7 8 9 11

GEFSCGP_500_meanwind_222.txt.gz
Wind_Speed
8 8 9 11 12 13 13 13 12 13 14 15 15 15 15 15 16 17 17 17 17 18 18 17 17 17 17 18 18 18 18 18 17 17 18 19 19 19 18 19 19 17 18 17
8 9 10 11 12 12 13 13 12 13 15 15 16 16 17 17 16 16 17 18 18 18 18 18 17 17 17 18 18 19 19 19 18 19 19 19 19 19 19 18 17 18 17 16
9 9 10 10 11 12 13 13 14 15 15 15 16 16 16 16 16 17 17 18 18 19 19 19 18 17 18 19 19 20 20 20 19 19 19 19 19 19 19 19 18 18 17 16
9 9 10 11 12 12 13 12 14 15 16 16 16 16 16 15 15 16 17 17 18 19 20 20 19 18 19 21 20 21 21 20 20 20 19 18 19 19 19 19 18 18 17 16
9 10 11 11 11 12 12 12 13 14 16 16 17 18 16 15 14 15 16 17 18 18 18 18 18 19 20 21 21 21 22 22 21 20 20 20 19 18 19 19 18 17 16 17
10 11 11 10 11 11 11 12 13 13 14 14 14 15 15 15 14 15 16 16 17 17 18 18 18 18 18 19 19 20 22 21 20 19 20 20 18 17 18 17 17 16 16 17
10 10 10 10 10 11 11 11 12 12 13 13 14 15 14 14 14 14 15 16 16 17 18 19 19 19 19 18 18 18 18 18 18 18 18 17 18 18 18 17 17 17 16 16
9 9 9 9 9 10 10 10 11 13 13 13 13 13 12 13 12 13 14 15 15 16 17 18 19 18 18 18 17 17 16 15 16 17 17 17 18 18 18 18 17 17 17 17
9 10 10 9 8 8 8 8 9 11 12 12 11 11 11 12 12 13 13 13 14 15 16 17 17 17 17 17 17 16 15 14 15 15 15 15 16 16 16 16 16 17 17 17
9 9 9 9 8 8 8 8 9 9 10 11 11 11 11 11 11 12 12 12 13 14 15 15 15 16 16 16 16 15 14 14 14 13 13 14 14 14 15 15 15 16 17 17
8 8 8 8 8 8 7 7 8 9 10 10 10 10 11 12 12 11 12 13 13 13 14 14 15 15 14 15 15 15 14 13 12 12 13 14 13 13 14 14 14 15 16 16
8 8 7 8 8 8 7 6 8 8 9 9 10 9 10 11 11 11 12 13 12 13 13 14 14 13 13 13 14 13 13 13 12 12 12 12 11 12 13 13 14 14 14 15
8 8 7 7 7 7 6 5 6 7 8 7 8 8 8 9 10 11 12 12 12 13 14 14 14 13 13 13 12 11 11 12 11 11 11 10 10 10 10 10 11 12 13 14
8 7 7 7 7 7 6 6 7 7 7 7 7 8 8 8 8 9 10 11 12 13 13 13 13 11 11 10 10 10 9 9 9 8 8 8 8 8 9 10 11 12 13 14
8 7 7 7 7 6 6 6 7 7 7 6 7 8 7 7 8 9 10 12 12 12 12 11 10 10 9 9 8 8 8 7 7 6 6 7 7 7 8 9 11 12 12 12
8 6 6 6 7 6 6 7 7 6 6 6 7 7 7 8 8 9 10 11 11 11 11 10 10 9 9 8 8 8 7 6 6 5 6 6 7 7 8 9 10 11 10 11
8 7 6 6 6 6 7 8 7 6 6 6 6 7 7 7 8 9 11 12 12 11 11 11 9 9 8 8 8 8 8 7 6 6 6 6 6 7 7 8 9 10 9 10
8 8 7 6 6 6 7 8 7 6 5 5 6 7 7 8 8 9 10 10 10 10 10 10 9 9 8 8 8 7 7 7 6 6 6 6 6 7 8 9 9 10 10 10
8 8 8 7 7 6 7 8 7 6 5 6 6 7 7 7 8 8 9 9 10 10 10 10 10 9 8 7 8 7 7 7 7 7 7 7 7 7 8 8 9 9 10 10
9 8 9 8 8 8 8 9 8 7 5 6 6 6 7 8 7 8 9 9 9 9 10 10 10 9 8 8 8 8 7 6 6 6 7 7 7 7 7 8 8 9 9 10
8 8 8 8 8 8 9 9 8 7 5 5 6 7 8 8 8 8 8 8 9 9 10 10 10 9 8 8 8 8 7 6 6 7 7 6 6 6 7 7 8 8 9 10
9 8 8 8 8 7 8 9 7 6 5 6 7 7 8 8 7 8 8 9 9 9 9 9 9 8 8 7 7 7 7 6 6 6 6 6 6 7 7 8 8 8 9 10
8 8 8 8 7 7 8 8 7 7 7 7 8 8 8 8 7 8 8 9 9 9 8 8 9 8 8 7 7 7 7 7 7 6 6 6 6 7 8 8 8 9 10 11
8 8 8 8 8 8 8 8 7 7 7 7 8 8 8 8 7 8 8 8 8 8 8 8 8 9 9 8 7 7 7 7 7 6 7 7 7 8 8 9 9 9 10 11
9 9 9 9 9 9 9 9 9 8 9 8 8 8 8 8 8 8 8 8 8 8 8 8 9 8 8 8 8 7 8 8 7 7 7 7 7 8 8 9 9 10 11 12
10 10 10 9 9 9 10 10 10 10 10 10 9 9 9 9 8 8 8 8 7 7 8 8 8 8 8 8 8 8 8 8 7 7 7 7 8 8 9 9 10 11 12 13

GEFSCGP_500_meanwind_228.txt.gz
Wind_Speed
7 7 8 9 9 10 10 10 11 12 12 12 14 15 17 18 17 17 17 17 17 19 19 19 18 18 18 19 18 18 19 19 19 19 19 19 18 18 18 18 18 19 20 20
8 9 9 9 9 10 10 11 12 12 12 12 13 14 16 17 17 17 17 17 18 18 18 17 17 18 19 20 19 20 20 19 18 18 18 18 18 19 20 19 19 20 20 20
8 10 9 10 10 10 11 11 12 12 12 13 13 13 14 15 15 16 16 17 17 18 18 19 18 19 20 19 19 19 18 18 18 18 19 20 20 20 20 20 20 20 20 20
9 9 9 9 10 9 10 11 12 13 12 12 12 12 14 14 15 15 15 16 17 18 18 18 19 19 19 19 18 18 18 18 19 19 20 20 20 21 20 20 20 20 20 20
9 8 8 9 9 9 10 11 11 11 11 12 12 12 13 13 13 13 13 14 15 16 16 17 18 19 19 18 18 18 18 18 19 19 19 20 20 20 20 20 19 20 20 19
8 8 8 8 8 9 9 10 10 10 10 11 11 11 12 12 12 12 12 12 13 14 15 16 17 17 18 18 18 18 18 18 18 18 19 19 19 18 19 19 18 19 19 18
8 8 7 8 8 8 8 8 8 8 9 9 10 11 11 12 12 12 12 13 13 14 14 15 16 16 17 18 18 18 18 17 17 18 18 18 17 17 17 17 18 19 19 18
8 8 8 8 8 8 7 7 7 7 8 7 9 10 10 11 12 11 12 12 13 14 15 15 15 15 16 16 16 16 16 16 16 16 16 16 16 16 17 17 17 17 17 18
7 8 7 7 7 6 6 5 5 5 6 6 8 8 9 9 10 10 11 12 12 13 14 14 14 14 14 14 13 13 13 14 14 15 14 15 15 16 17 16 16 16 17 16
6 6 6 5 6 5 5 4 3 3 4 5 5 7 8 9 9 9 10 11 12 12 12 12 12 13 13 13 12 12 12 12 13 13 13 13 14 15 14 15 14 15 16 16
5 5 5 5 5 5 4 3 3 3 4 4 6 8 8 8 9 10 10 11 12 12 12 12 12 12 13 13 12 12 12 12 12 12 11 11 12 11 11 12 13 13 13 13
4 4 4 4 4 4 4 3 3 4 5 5 7 8 8 8 9 10 10 11 11 12 12 12 13 13 12 12 13 13 12 12 12 11 11 10 10 10 10 10 10 11 12 13
5 5 4 5 5 4 4 4 4 4 5 5 7 8 8 7 8 9 10 11 11 11 12 13 13 12 12 11 11 11 10 10 10 10 9 9 9 8 8 9 9 10 10 10
5 5 5 5 5 5 5 5 5 5 6 6 6 7 7 6 6 7 8 9 10 10 11 13 13 11 11 10 9 9 9 9 8 8 8 7 7 7 7 7 7 7 8 9
6 6 6 6 5 5 5 6 6 6 6 5 6 7 7 6 6 7 9 10 10 11 11 12 11 11 10 9 9 8 8 7 7 6 6 6 6 6 6 5 6 7 8 9
5 6 6 5 5 5 5 6 6 6 5 5 6 7 7 7 7 8 9 10 10 11 12 12 11 11 10 8 8 8 7 6 6 6 6 6 5 4 4 5 6 7 8 9
5 5 5 5 5 6 6 6 5 5 4 4 5 5 7 7 7 7 9 9 10 11 11 11 10 10 9 8 7 6 6 5 5 5 5 5 4 4 5 5 6 8 8 9
5 5 5 5 5 5 5 5 5 5 5 5 5 5 7 7 7 8 9 9 10 11 10 10 9 9 9 7 7 5 5 5 4 4 4 5 4 5 6 7 8 8 8 9
5 5 5 4 5 5 5 5 5 5 6 5 5 6 7 7 8 8 9 9 10 10 10 9 9 8 8 7 7 6 6 5 5 5 5 5 5 5 6 7 8 8 7 8
5 5 5 5 5 5 6 6 6 6 6 5 6 6 7 7 8 9 9 9 10 9 9 9 8 8 7 7 7 6 6 5 5 5 5 5 5 6 7 8 8 7 7 8
6 6 6 6 6 6 6 6 6 6 6 5 6 7 8 8 8 9 9 9 9 9 8 8 7 7 7 7 6 6 6 5 4 5 5 5 5 6 7 7 7 7 8 9
8 8 7 7 7 7 7 7 7 7 7 7 7 8 8 8 8 9 9 9 9 8 7 7 7 6 6 6 6 6 6 6 6 6 6 6 6 7 7 8 7 8 8 10
9 9 9 8 8 8 8 7 7 7 7 7 7 7 8 8 8 8 8 9 9 8 7 7 7 6 6 6 6 6 6 6 6 6 6 6 7 7 8 8 8 8 9 10
10 10 10 9 8 9 8 7 7 7 7 7 7 7 7 7 7 7 8 8 9 8 7 7 7 7 6 6 6 6 6 6 7 7 7 7 7 8 8 8 9 9 10 11
11 10 10 10 10 10 9 8 8 8 8 8 7 7 7 8 8 8 8 8 9 9 8 7 6 6 6 6 6 6 6 6 7 7 7 8 8 9 10 10 11 11 12 12
12 11 11 11 10 10 10 10 10 10 9 9 9 9 8 8 9 9 8 8 8 8 7 7 6 6 6 6 6 6 6 7 8 8 8 9 9 9 10 11 12 12 13 13

GEFSCGP_500_meanwind_234.txt.gz
Wind_Speed
8 8 8 8 10 10 10 11 13 12 13 14 16 16 16 14 15 16 17 19 19 19 20 18 18 18 18 18 17 17 17 18 18 19 19 19 20 19 19 19 19 18 18 19
9 10 10 10 11 10 10 12 12 13 14 14 15 14 14 14 16 17 18 19 20 20 20 18 17 17 17 17 17 17 17 18 18 18 19 19 19 19 19 19 19 19 19 19
8 10 11 10 10 11 12 12 13 12 11 12 13 13 15 15 16 17 17 19 19 20 18 18 17 17 17 16 17 18 17 18 17 18 19 19 19 19 19 18 19 19 19 19
7 9 10 11 11 11 11 11 11 9 10 10 12 13 15 17 16 18 16 16 16 16 18 17 16 16 16 16 17 17 17 17 18 18 19 20 19 19 19 18 18 18 19 18
8 9 8 9 10 11 10 10 9 8 8 9 11 12 14 15 17 17 16 15 15 17 17 17 16 16 16 16 16 16 17 18 19 20 21 20 19 18 18 18 18 18 18 18
9 10 9 9 9 10 9 9 6 6 7 9 10 12 14 14 15 16 16 15 16 17 17 16 15 15 16 15 14 16 18 18 20 20 19 19 18 18 17 17 18 18 18 18
8 10 10 9 8 8 7 7 5 6 7 10 11 13 15 15 15 16 15 16 15 15 16 15 14 14 15 15 15 16 16 17 17 17 17 18 18 18 17 17 17 17 17 17
6 9 9 8 7 6 6 6 6 6 8 9 10 13 15 14 15 15 14 15 16 14 14 13 14 14 15 15 15 15 15 15 15 15 16 16 16 17 17 16 16 16 15 15
6 7 8 7 6 6 4 5 4 7 7 8 10 12 13 13 15 15 14 14 14 13 13 13 14 14 14 14 14 14 14 14 14 15 15 15 15 16 16 16 14 13 13 13
7 6 6 6 5 6 5 2 4 6 7 8 10 13 13 13 14 15 14 13 13 12 13 12 13 13 14 13 13 14 14 14 14 14 14 13 14 13 13 13 12 12 12 12
6 5 4 4 5 6 5 4 4 5 7 8 10 13 12 12 13 14 14 13 12 11 11 12 12 13 13 13 13 13 13 13 13 12 12 12 12 11 11 10 10 10 10 11
6 5 4 5 6 7 5 4 4 6 6 8 10 12 11 13 12 12 11 11 11 11 12 12 12 13 13 12 12 12 12 12 11 11 12 12 11 10 10 9 9 10 11 11
6 5 5 6 7 8 6 5 6 7 7 8 9 10 10 11 11 10 10 10 10 11 11 12 12 12 12 12 12 11 11 11 10 10 11 11 10 10 9 8 8 9 10 11
6 5 5 5 5 6 6 6 7 7 7 10 10 9 9 10 10 9 9 10 10 11 12 11 12 12 12 12 11 11 10 10 9 9 9 10 9 9 8 8 8 9 10 11
6 6 5 4 4 5 6 6 7 7 7 9 10 9 8 10 10 10 9 10 10 11 12 12 12 13 13 12 11 10 10 9 9 9 8 8 8 7 7 8 8 9 9 10
7 6 6 4 4 5 5 6 6 7 8 8 8 7 8 8 10 10 9 10 10 11 12 12 12 12 11 10 10 9 9 8 8 7 7 7 7 7 7 8 7 8 8 9
7 6 6 5 5 5 6 6 7 8 8 9 8 8 9 8 9 10 9 10 10 11 12 12 12 11 10 10 9 9 8 8 7 7 7 7 7 7 8 8 8 8 8 9
7 6 6 6 6 6 7 7 8 9 9 9 9 9 9 9 9 9 9 10 10 11 12 11 10 10 10 10 10 8 8 8 8 7 7 7 7 8 8 8 8 8 8 9
8 8 7 6 6 7 8 8 9 10 10 9 8 7 8 8 8 8 9 9 10 11 11 11 10 10 10 10 10 9 8 8 7 6 6 6 7 7 7 8 8 9 9 10
9 9 9 9 9 9 10 10 11 11 10 10 9 8 8 9 9 9 9 10 11 11 11 10 10 10 10 10 10 9 8 7 6 6 6 6 7 7 7 8 9 9 10 11
11 11 11 11 11 11 12 11 11 11 10 9 9 9 9 9 10 10 10 11 11 11 11 9 10 10 10 10 9 8 7 6 6 6 7 7 7 8 8 9 9 10 10 11
13 13 13 12 12 13 13 13 12 12 10 9 10 10 10 10 10 11 11 11 11 11 10 9 9 9 9 9 8 7 6 6 6 7 7 8 8 8 9 9 10 11 11 12
14 14 14 14 14 14 14 13 13 12 12 11 11 11 11 11 11 10 10 10 10 10 10 9 8 8 8 8 7 7 7 6 7 8 8 9 9 9 10 10 11 11 12 13
15 15 15 15 15 15 14 13 13 12 12 12 12 12 11 11 10 9 9 9 10 10 9 8 8 8 8 8 7 7 7 7 8 8 9 10 10 10 10 11 11 12 13 14
16 16 15 15 15 15 14 15 13 12 12 12 12 12 12 10 10 10 10 10 10 10 9 9 8 8 8 8 7 7 7 8 8 9 10 10 11 11 11 11 11 12 13 15
16 15 15 16 16 15 15 15 14 14 13 13 12 12 12 11 11 11 11 11 11 10 10 9 8 8 8 8 8 8 8 9 9 9 10 10 11 11 12 12 12 13 15 16

GEFSCGP_500_meanwind_240.txt.gz
Wind_Speed
7 7 8 9 9 10 10 11 12 12 12 13 14 15 15 14 14 13 14 15 15 16 16 15 15 15 14 15 16 14 13 14 15 15 15 15 15 15 15 15 15 14 14 15
7 8 8 9 9 10 12 12 12 11 11 12 14 14 15 14 14 13 13 13 14 16 16 16 17 16 16 16 17 15 14 15 15 15 14 15 15 15 15 15 15 14 14 15
8 8 9 9 9 9 10 12 11 10 10 12 14 15 14 13 12 12 12 13 14 14 15 16 16 16 16 16 16 15 14 15 15 15 15 15 15 16 16 16 16 16 15 16
8 8 9 9 9 10 10 10 10 11 10 11 13 13 13 13 13 12 12 12 13 14 14 15 16 16 16 16 15 14 14 15 15 15 15 16 16 16 17 17 17 17 16 17
9 8 8 9 9 9 10 9 9 10 10 11 12 12 11 11 12 12 12 12 13 13 14 14 16 16 16 16 15 15 14 15 15 15 15 16 16 16 17 17 17 16 16 16
8 8 8 8 8 8 8 8 7 8 10 12 12 12 11 11 12 12 12 14 13 13 13 14 15 15 14 14 14 13 13 13 14 13 14 15 15 16 15 15 15 14 15 15
7 8 7 7 6 6 7 7 6 7 8 10 11 12 13 12 11 10 10 12 12 12 13 14 14 14 13 14 14 13 13 12 13 12 13 13 13 14 14 14 14 14 14 14
9 8 8 6 5 5 6 6 7 7 7 8 10 11 11 10 10 10 10 11 11 12 12 13 14 13 12 13 14 13 11 12 12 12 12 12 12 12 13 12 12 12 12 12
7 7 7 6 5 5 4 5 5 6 7 8 9 9 9 9 10 10 11 11 11 11 12 12 12 12 12 12 12 11 11 12 12 12 11 12 12 12 12 12 11 11 10 10
7 7 7 7 6 5 4 3 4 5 7 8 8 9 9 9 11 11 11 11 10 11 10 11 11 11 11 11 11 11 10 11 12 12 11 10 11 11 11 11 10 9 9 9
7 7 7 6 6 5 3 3 4 5 5 7 8 8 9 9 10 10 11 11 10 9 9 11 10 10 10 10 10 10 10 9 10 10 10 10 10 9 9 9 8 9 9 9
7 7 7 6 5 5 4 4 4 5 5 7 8 8 8 7 8 8 9 9 9 9 10 10 10 10 9 9 10 9 9 9 9 9 9 9 9 9 8 8 8 8 8 8
8 7 7 5 5 5 5 5 5 5 5 7 7 7 7 6 7 8 9 8 8 8 9 9 9 8 8 9 10 10 9 9 8 8 8 8 8 8 8 8 7 8 8 8
8 7 6 6 6 5 5 5 5 5 6 7 7 7 7 7 7 7 7 6 7 8 8 8 8 8 9 9 10 9 9 8 8 7 7 8 8 8 7 7 7 7 7 8
8 7 6 6 6 5 5 4 5 6 6 7 7 7 6 7 8 7 6 6 7 8 8 8 9 9 9 10 9 8 8 7 7 7 7 7 7 7 6 6 6 6 7 7
8 7 6 6 7 6 5 5 5 6 6 6 6 6 6 6 7 7 7 7 7 8 8 9 10 10 10 9 8 7 8 7 7 7 7 7 7 6 6 6 6 6 7 7
8 8 7 7 7 7 5 5 5 6 7 7 7 7 7 6 7 7 7 7 7 8 8 9 9 9 9 8 7 8 8 8 7 6 7 7 7 6 6 5 6 7 7 7
9 8 9 8 8 8 8 7 7 7 7 6 6 6 7 7 8 8 7 6 7 7 8 9 8 8 8 8 8 8 8 7 7 6 6 7 7 6 5 5 6 7 7 6
9 9 10 10 10 10 10 9 7 7 7 7 6 6 7 7 8 7 7 7 7 8 8 9 8 8 8 9 9 8 8 7 7 7 7 6 6 6 5 5 6 6 7 7
10 10 11 11 11 11 10 9 8 8 7 7 8 8 8 9 9 8 8 8 8 8 7 8 8 8 9 9 9 8 8 8 7 6 6 6 6 6 6 6 7 7 7 8
11 11 11 12 12 11 10 10 9 8 8 8 9 9 10 10 10 9 8 8 8 7 7 8 8 8 9 9 9 8 8 8 7 6 6 6 6 6 7 7 7 8 9 9
13 12 12 12 12 11 10 10 10 9 10 10 10 10 10 10 9 8 8 8 8 7 7 8 8 8 8 8 8 8 8 7 6 6 6 6 7 7 7 8 8 9 10 11
14 14 14 13 13 12 12 12 12 12 12 11 12 12 11 10 9 8 8 8 8 8 8 8 8 7 8 8 8 7 7 7 7 7 7 7 7 7 8 9 9 10 11 12
15 15 15 15 15 14 14 13 13 13 13 13 11 11 11 10 10 8 8 8 8 8 8 8 8 7 8 8 8 8 7 7 7 7 8 8 8 8 8 9 10 11 12 13
15 15 15 15 14 14 13 13 13 13 13 12 12 11 11 11 9 8 7 7 7 8 8 8 8 9 8 8 8 8 7 7 7 7 8 9 9 10 10 10 11 12 13 14
15 16 16 16 15 15 15 14 14 15 14 13 12 12 11 11 10 9 8 8 8 8 8 8 9 9 9 9 9 8 8 7 8 8 9 10 10 11 11 11 12 13 14 14

GEFSCGP_500_meanwind_246.txt.gz
Wind_Speed
10 11 11 12 13 14 14 14 14 14 15 15 14 14 14 15 15 16 16 16 16 16 14 14 13 13 13 13 13 14 15 14 14 15 15 15 15 14 15 15 16 17 17 17
10 10 11 12 12 13 14 14 14 14 15 15 15 14 14 14 15 16 16 16 15 14 14 14 14 14 14 15 15 14 14 15 15 14 14 14 14 15 15 16 16 16 16 16
10 10 11 12 13 13 13 14 14 14 14 14 15 14 14 14 14 15 15 15 14 13 13 14 14 14 14 14 14 13 14 14 15 14 14 14 14 14 14 14 15 15 15 15
10 11 11 11 12 13 13 13 14 13 13 14 14 14 13 13 14 14 13 12 12 12 12 13 13 13 13 13 12 13 14 14 15 16 15 15 15 13 14 14 15 15 14 14
11 11 11 11 11 12 11 12 12 13 13 14 13 14 13 13 13 13 11 11 11 11 11 11 11 12 12 12 12 12 14 14 15 16 16 15 15 15 14 15 14 15 15 14
11 11 10 10 10 11 10 11 11 12 13 13 12 13 12 12 12 12 11 11 10 10 10 11 12 12 12 11 11 12 13 13 14 15 15 15 15 15 15 15 14 14 14 14
10 10 10 10 10 10 10 10 10 11 11 12 12 12 11 10 11 11 11 11 11 11 11 11 12 12 11 11 11 11 11 12 13 13 13 13 13 13 13 14 14 13 14 14
9 9 10 10 10 10 10 10 9 10 11 10 10 11 10 10 10 10 10 11 10 11 11 11 11 10 11 11 11 11 11 12 12 12 12 13 12 12 12 13 13 13 13 13
10 10 10 10 9 10 9 9 9 10 10 9 9 10 9 9 9 8 9 9 8 9 10 11 11 10 10 10 10 11 11 11 11 12 12 12 11 11 12 12 12 11 12 12
10 10 9 10 10 9 9 10 9 9 9 8 8 9 9 8 8 7 7 6 7 8 9 9 8 9 10 9 9 9 10 11 11 11 11 10 10 10 10 11 11 11 11 11
9 10 10 10 10 10 10 9 9 8 8 8 8 8 7 8 8 7 6 7 8 8 8 8 8 9 9 9 9 9 10 10 10 10 10 9 9 10 10 10 11 11 11 10
10 10 10 10 10 10 10 9 8 8 8 8 8 8 7 8 8 7 7 7 8 7 8 8 8 8 8 8 8 9 10 10 9 9 9 9 9 9 10 10 10 10 10 10
11 11 11 11 10 9 8 8 8 8 8 8 8 8 7 7 7 8 8 6 7 7 7 7 8 8 8 8 8 8 9 9 9 8 8 9 9 9 9 10 10 10 9 10
11 11 11 12 11 10 8 8 7 7 8 8 8 8 7 7 7 7 6 5 6 7 7 7 8 8 8 8 8 8 9 9 9 9 9 9 8 8 9 9 9 9 9 9
10 10 10 10 10 9 8 7 7 7 7 8 7 8 7 7 7 7 6 6 7 7 7 7 7 8 8 9 10 9 10 9 9 8 8 7 8 8 8 8 8 8 8 8
10 11 11 11 10 9 9 8 7 7 7 7 7 7 7 6 6 6 7 7 7 7 7 7 7 8 8 9 10 9 9 9 9 8 7 8 9 9 8 8 8 8 9 9
12 12 11 11 10 10 10 9 9 8 7 7 7 7 7 7 7 6 7 7 7 7 8 8 8 9 9 9 8 9 9 9 8 8 8 8 8 8 8 8 9 9 10 10
13 13 12 12 12 12 11 10 9 9 8 8 8 7 7 7 7 7 8 8 8 8 8 8 9 9 9 9 8 8 9 9 8 8 8 8 8 8 8 9 10 10 10 11
13 13 13 13 13 13 11 10 10 10 9 10 10 9 9 8 8 8 9 9 9 9 9 9 9 9 9 8 8 9 9 9 8 8 8 8 8 8 8 9 9 9 11 11
13 13 14 14 14 13 11 11 11 11 11 12 12 12 11 10 10 10 10 10 10 10 10 10 9 9 9 9 9 9 9 9 9 9 9 8 8 8 9 9 10 11 12 12
14 14 14 14 14 12 11 12 12 12 12 12 12 12 12 12 12 11 11 11 10 10 10 10 9 9 9 9 9 9 9 9 9 9 9 9 9 9 10 11 11 12 12 12
16 16 15 14 14 13 13 13 13 13 13 13 12 12 12 13 13 12 11 11 11 10 10 10 9 8 8 9 9 9 9 9 8 8 9 10 10 11 11 12 12 12 12 13
16 16 16 15 15 15 14 14 14 14 14 14 14 14 14 14 12 12 11 12 11 10 10 9 8 8 8 8 8 9 9 9 8 9 10 10 11 12 12 12 12 12 13 13
16 16 16 16 16 16 16 15 15 15 15 15 15 15 15 14 13 12 11 12 12 9 8 8 7 7 7 8 8 9 9 9 9 10 11 11 12 12 12 12 12 12 13 13
18 19 18 17 17 17 17 16 16 16 16 16 15 15 14 13 13 13 12 12 11 9 9 8 8 8 8 8 9 9 9 10 10 11 11 12 12 12 11 12 12 13 14 14
18 19 18 18 18 18 18 18 17 16 16 16 15 14 13 13 13 13 12 12 12 11 10 9 8 8 9 9 9 9 9 10 11 11 11 11 11 11 11 12 13 13 14 14